Content
SEND FEEDBACK

Daily
Averages
Monthly
Summary
Mexico

PUEBLA - JARDINES DE SAN MANUEL, PUEBLA


Home > North America > Mexico > Puebla
Elevation: 6962 feet     Latitude: 19 00N     Longitude: 098 11W

WEATHER
 
SELECT A DAY
Number of Records: 121,150;   Date Range: 1/1/95 - 9/15/14
 
SHARE

PRINT THIS DATA

[ ← Previous Day ]
WEATHER ALMANAC - SEPTEMBER 1, 2013
[ Next Day → ]
[ °C ]   °F
Weather ElementAverageHighLow
Temperature63.4 °F75.2 °F (1:46 pm)51.8 °F (5:59 am)
Dewpoint53.5 °F59 °F (5:18 pm)46.4 °F (1:46 pm)
Humidity71.5 %94 % (12:49 am)31 % (3:50 pm)
Barometer30.15 in30.33 in (12:49 am)29.66 in (6:50 pm)
Wind Speed4.9 mph12.7 mph (5:18 pm)
Weather ElementAverage
Visibility8.5 mi
Wind DirectionS (180 °)

Weather ElementTotal
Precipitation---
Heating Degree Days1.5 (Base 65)
Growing Degree Days13.5 (Base 50)
Averaged from 31 records on September 1, 2013
WEATHER CONDITIONS BREAKOUT
WIND DIRECTION BREAKOUT
WEATHER BY HOUR - SEPTEMBER 1, 2013
[ °C ]   °F
Local TimeTemperatureDewpointHumidityBarometerVisibilityWind DirectionWind SpeedGust SpeedPrecipitationEventsConditions
12:49 AM55.4 °F53.6 °F94 %30.33 in7.0 miNW (320°)3.5 mphMostly Cloudy
1:48 AM55.4 °F53.6 °F94 %30.31 in7.0 miCalmMostly Cloudy
2:44 AM55.4 °F53.6 °F94 %30.29 in6.0 miNW (310°)5.8 mphMostly Cloudy
3:42 AM53.6 °F51.8 °F94 %30.27 in6.0 miNNW (340°)6.9 mphMostly Cloudy
3:45 AM60.0 °F56.0 °F84 %29.82 in3.0 miCalmPartly Cloudy
5:59 AM51.8 °F50.0 °F94 %30.26 in8.0 miWNW (300°)3.5 mphMostly Cloudy
6:41 AM51.8 °F50.0 °F94 %30.26 in10.0 miNW (310°)5.8 mphScattered Clouds
6:45 AM58.0 °F55.0 °F88 %29.81 in3.0 miCalmScattered Clouds
7:53 AM53.6 °F50.0 °F88 %30.27 in10.0 miNNW (330°)8.1 mphPartly Cloudy
8:44 AM57.2 °F51.8 °F82 %30.30 in10.0 miNNW (330°)6.9 mphPartly Cloudy
9:47 AM62.6 °F55.4 °F77 %30.31 in10.0 miNW (320°)6.9 mphPartly Cloudy
9:50 AM63.0 °F53.0 °F62 %29.86 in3.0 miSW (220°)2.2 mphHaze
10:45 AM66.2 °F53.6 °F64 %30.32 in10.0 miNNE (20°)4.6 mphPartly Cloudy
11:47 AM69.8 °F53.6 °F56 %30.31 in10.0 miNNE (30°)6.9 mphScattered Clouds
12:45 PM71.6 °F50.0 °F46 %30.29 in10.0 miEast (80°)5.8 mphMostly Cloudy
12:50 PM70.0 °F50.0 °F38 %29.83 in12.0 miESE (120°)2.2 mphMostly Cloudy
1:46 PM75.2 °F46.4 °F36 %30.27 in10.0 miSouth (170°)3.5 mphMostly Cloudy
2:47 PM73.4 °F51.8 °F47 %30.24 in10.0 miSSE (150°)6.9 mphMostly Cloudy
3:48 PM75.2 °F55.4 °F50 %30.20 in10.0 miSouth (190°)11.5 mphMostly Cloudy
3:50 PM73.0 °F49.0 °F31 %29.70 in12.0 miESE (120°)2.2 mphMostly Cloudy
4:43 PM75.2 °F57.2 °F53 %30.18 in10.0 miSE (140°)8.1 mphMostly Cloudy
4:55 PM75.2 °F53.6 °F47 %30.18 in10.0 miESE (120°)5.8 mphThunderstormThunderstorm
5:18 PM68.0 °F59.0 °F73 %30.18 in6.0 miESE (110°)12.7 mphRain-ThunderstormThunderstorms and Rain
5:43 PM68.0 °F57.2 °F68 %30.19 in6.0 miSE (130°)6.9 mphThunderstormThunderstorm
6:44 PM60.8 °F51.8 °F72 %30.21 in10.0 miSSE (150°)10.4 mphOvercast
6:50 PM59.0 °F56.0 °F86 %29.66 in12.0 miNorth2.2 mphRainLight Drizzle
7:44 PM60.8 °F55.4 °F82 %30.23 in10.0 miWest (260°)3.5 mphOvercast
8:40 PM60.8 °F55.4 °F82 %30.25 in10.0 miSSE (150°)3.5 mphMostly Cloudy
9:40 PM62.6 °F55.4 °F77 %30.29 in10.0 miCalmMostly Cloudy
9:45 PM63.0 °F56.0 °F70 %29.74 in3.0 miCalmPartly Cloudy
10:40 PM59.0 °F57.2 °F94 %30.29 in10.0 miNW (320°)5.8 mphMostly Cloudy
Hourly data recorded from MMPB, located miles away from Puebla - Jardines de San Manuel, Puebla







STORIES FROM OUR PARTNERS